GW5915 Weather Reports


Display with metric or nautical units.
time (UTC)temp
F
wind
direction
speed
MPH
gust
MPH
rain 1hr
in
rain 24hr
in
rain mn
in
humidity
%
barometer
mb
20260904150352 87 190 3.0 3.0 0.00 0.00 0.00 78 1015.7
20260904145850 87 240 5.0 5.0 0.00 0.00 0.00 77 1015.3
20260904145346 87 209 4.0 4.0 0.00 0.00 0.00 77 1015.3
20260904144842 87 258 5.0 5.0 0.00 0.00 0.00 78 1015.3
20260904144337 87 204 3.0 3.0 0.00 0.00 0.00 78 1015.0
20260904143833 87 258 2.0 2.0 0.00 0.00 0.00 78 1015.3
20260904143330 86 222 4.0 4.0 0.00 0.00 0.00 79 1015.3
20260904142825 86 222 6.0 7.0 0.00 0.00 0.00 80 1015.0
20260904142321 86 228 9.0 10.0 0.00 0.00 0.00 80 1015.0
20260904141815 86 210 3.0 3.0 0.00 0.00 0.00 84 1015.0
20260904141310 86 213 6.0 6.0 0.00 0.00 0.00 84 1015.0
20260904140807 87 224 5.0 6.0 0.00 0.00 0.00 81 1015.0
20260904140302 86 222 3.0 4.0 0.00 0.00 0.00 83 1015.0
20260904135801 86 216 3.0 3.0 0.00 0.00 0.00 84 1015.0
20260904135256 86 166 7.0 7.0 0.00 0.00 0.00 82 1015.0
20260904134752 86 241 6.0 6.0 0.00 0.00 0.00 84 1015.0
20260904134251 86 228 3.0 4.0 0.00 0.00 0.00 84 1015.0
20260904133746 86 200 6.0 7.0 0.00 0.00 0.00 83 1015.0
20260904133242 86 198 3.0 4.0 0.00 0.00 0.00 83 1015.0
20260904132741 86 230 4.0 4.0 0.00 0.00 0.00 85 1015.0
20260904132237 85 204 4.0 4.0 0.00 0.00 0.00 86 1014.7
20260904131736 85 228 4.0 4.0 0.00 0.00 0.00 87 1014.7
20260904131232 85 228 4.0 4.0 0.00 0.00 0.00 87 1014.7
20260904130732 84 229 2.0 2.0 0.00 0.00 0.00 88 1014.7
20260904130231 84 224 5.0 5.0 0.00 0.00 0.00 88 1014.3
20260904125728 84 223 0.0 0.0 0.00 0.00 0.00 90 1014.7
20260904125223 83 216 4.0 4.0 0.00 0.00 0.00 90 1014.3
20260904124723 83 230 4.0 4.0 0.00 0.00 0.00 91 1014.3
20260904124219 82 228 3.0 4.0 0.00 0.00 0.00 91 1014.7
20260904123714 82 223 2.0 2.0 0.00 0.00 0.00 92 1014.7
20260904123210 82 240 2.0 2.0 0.00 0.00 0.00 93 1014.7
20260904122709 81 222 0.0 0.0 0.00 0.00 0.00 94 1014.3
20260904122204 81 222 0.0 0.0 0.00 0.00 0.00 95 1014.3
20260904121659 80 218 2.0 2.0 0.00 0.00 0.00 95 1014.0
20260904121155 80 222 0.0 0.0 0.00 0.00 0.00 96 1014.0
20260904120651 80 222 0.0 0.0 0.00 0.00 0.00 97 1014.0
20260904120147 80 188 0.0 0.0 0.00 0.00 0.00 97 1014.0
20260904115642 79 188 0.0 0.0 0.00 0.00 0.00 98 1014.0
20260904115137 78 188 0.0 0.0 0.00 0.00 0.00 98 1014.3
20260904114632 78 188 0.0 0.0 0.00 0.00 0.00 98 1014.3
20260904114132 78 186 0.0 0.0 0.00 0.00 0.00 98 1014.0
20260904113631 78 186 0.0 0.0 0.00 0.00 0.00 98 1014.0
20260904113131 77 186 0.0 0.0 0.00 0.00 0.00 98 1014.0
20260904112626 77 186 0.0 0.0 0.00 0.00 0.00 98 1014.0
20260904112122 77 186 0.0 0.0 0.00 0.00 0.00 98 1014.0
20260904111617 77 186 0.0 0.0 0.00 0.00 0.00 98 1014.0
20260904111113 77 186 0.0 0.0 0.00 0.00 0.00 98 1014.0
20260904110609 77 186 0.0 0.0 0.00 0.00 0.00 98 1013.6
20260904110109 77 186 0.0 0.0 0.00 0.00 0.00 98 1013.6
20260904105608 77 186 0.0 0.0 0.00 0.00 0.00 98 1013.3
20260904105103 77 186 0.0 0.0 0.00 0.00 0.00 98 1013.3
20260904104559 77 186 0.0 0.0 0.00 0.00 0.00 98 1013.6
20260904104054 77 186 0.0 0.0 0.00 0.00 0.00 98 1013.3
20260904103549 77 186 0.0 0.0 0.00 0.00 0.00 98 1013.3
20260904103046 77 186 0.0 0.0 0.00 0.00 0.00 98 1013.3
20260904102541 77 186 0.0 0.0 0.00 0.00 0.00 98 1013.3
20260904102036 77 186 0.0 0.0 0.00 0.00 0.00 98 1013.3
20260904101533 77 186 0.0 0.0 0.00 0.00 0.00 98 1013.3
20260904101029 77 186 0.0 0.0 0.00 0.00 0.00 98 1013.0
20260904100524 77 186 0.0 0.0 0.00 0.00 0.00 98 1013.3
20260904100019 77 186 0.0 0.0 0.00 0.00 0.00 98 1013.0
20260904095514 77 186 0.0 0.0 0.00 0.00 0.00 98 1013.0
20260904095009 77 186 0.0 0.0 0.00 0.00 0.00 98 1013.0
20260904094504 77 186 0.0 0.0 0.00 0.00 0.00 98 1013.0
20260904093959 77 186 0.0 0.0 0.00 0.00 0.00 98 1013.0
20260904093456 77 186 0.0 0.0 0.00 0.00 0.00 98 1013.0
20260904092950 77 186 0.0 0.0 0.00 0.00 0.00 98 1013.0
20260904092447 77 186 0.0 0.0 0.00 0.00 0.00 98 1013.0
20260904091942 77 186 0.0 0.0 0.00 0.00 0.00 98 1013.0
20260904091438 77 186 0.0 0.0 0.00 0.00 0.00 98 1013.0
20260904090932 77 186 0.0 0.0 0.00 0.00 0.00 98 1012.3
20260904090428 77 186 0.0 0.0 0.00 0.00 0.00 98 1012.3
20260904085923 77 186 0.0 0.0 0.00 0.00 0.00 98 1012.6
20260904085419 77 186 0.0 0.0 0.00 0.00 0.00 98 1012.6
20260904084919 77 186 0.0 0.0 0.00 0.00 0.00 98 1012.6
20260904084415 77 186 0.0 0.0 0.00 0.00 0.00 98 1012.6
20260904083910 77 186 0.0 0.0 0.00 0.00 0.00 98 1013.0
20260904083407 77 186 0.0 0.0 0.00 0.00 0.00 98 1012.6
20260904082857 77 186 0.0 0.0 0.00 0.00 0.00 98 1012.6
20260904082357 77 186 0.0 0.0 0.00 0.00 0.00 97 1012.6
20260904081852 78 186 0.0 0.0 0.00 0.00 0.00 97 1012.6
20260904081353 78 186 0.0 0.0 0.00 0.00 0.00 97 1012.6
20260904080849 78 186 0.0 0.0 0.00 0.00 0.00 97 1012.6
20260904080344 78 186 0.0 0.0 0.00 0.00 0.00 97 1012.6
20260904075840 78 186 0.0 0.0 0.00 0.00 0.00 97 1012.6
20260904075335 78 186 0.0 0.0 0.00 0.00 0.00 97 1012.3
20260904074834 78 186 0.0 0.0 0.00 0.00 0.00 97 1012.3
20260904074329 78 186 0.0 0.0 0.00 0.00 0.00 97 1012.3
20260904073825 78 186 0.0 0.0 0.00 0.00 0.00 97 1012.6
20260904073320 78 186 0.0 0.0 0.00 0.00 0.00 97 1012.6
20260904072816 78 186 0.0 0.0 0.00 0.00 0.00 97 1012.6
20260904072315 78 186 0.0 0.0 0.00 0.00 0.00 97 1012.6
20260904071811 79 186 0.0 0.0 0.00 0.00 0.00 97 1012.3
20260904071307 79 186 0.0 0.0 0.00 0.00 0.00 97 1012.6
20260904070806 79 186 0.0 0.0 0.00 0.00 0.00 97 1012.6
20260904070305 79 186 0.0 0.0 0.00 0.00 0.00 97 1012.6
20260904065800 79 186 0.0 0.0 0.00 0.00 0.00 97 1012.6
20260904065257 79 186 0.0 0.0 0.00 0.00 0.00 97 1012.6
20260904064756 80 186 0.0 0.0 0.00 0.00 0.00 97 1012.6
20260904064252 79 186 0.0 0.0 0.00 0.00 0.00 97 1012.6
20260904063748 79 186 0.0 0.0 0.00 0.00 0.00 97 1013.0
20260904063244 79 174 0.0 0.0 0.00 0.00 0.00 97 1012.6
20260904062740 80 174 0.0 0.0 0.00 0.00 0.00 97 1013.0
20260904062236 79 174 0.0 0.0 0.00 0.00 0.00 97 1012.6
20260904061731 79 174 0.0 0.0 0.00 0.00 0.00 97 1013.0
20260904061227 80 174 0.0 0.0 0.00 0.00 0.00 97 1013.0
20260904060724 80 174 0.0 0.0 0.00 0.00 0.00 97 1013.3
20260904060219 80 174 0.0 0.0 0.00 0.00 0.00 97 1013.3
20260904055714 79 174 0.0 0.0 0.00 0.00 0.00 97 1013.3
20260904055215 80 174 0.0 0.0 0.00 0.00 0.00 96 1013.0
20260904054710 80 174 0.0 0.0 0.00 0.00 0.00 96 1013.3
20260904054207 80 174 0.0 0.0 0.00 0.00 0.00 96 1013.3
20260904053701 80 174 0.0 0.0 0.00 0.00 0.00 96 1013.3
20260904053155 80 174 0.0 0.0 0.00 0.00 0.00 96 1013.3
20260904052652 80 174 0.0 0.0 0.00 0.00 0.00 96 1013.6
20260904052148 80 174 0.0 0.0 0.00 0.00 0.00 96 1013.3
20260904051644 80 174 0.0 0.0 0.00 0.00 0.00 96 1013.3
20260904051145 80 174 0.0 0.0 0.00 0.00 0.00 96 1013.3
20260904050640 80 174 0.0 0.0 0.00 0.00 0.00 96 1013.0
20260904050136 80 174 0.0 0.0 0.00 0.00 0.00 96 1013.0
20260904045636 80 174 0.0 0.0 0.00 0.00 0.00 96 1013.3
20260904045136 80 180 0.0 0.0 0.00 0.00 0.00 96 1013.3
20260904044632 80 192 0.0 0.0 0.00 0.00 0.00 95 1013.0
20260904044128 80 198 0.0 0.0 0.00 0.00 0.00 95 1013.3
20260904043624 80 204 0.0 0.0 0.00 0.00 0.00 95 1013.3
20260904043120 80 186 0.0 0.0 0.00 0.00 0.00 95 1013.6
20260904042616 81 180 1.0 1.0 0.00 0.00 0.00 95 1013.3
20260904042111 81 162 2.0 2.0 0.00 0.00 0.00 95 1013.6
20260904041607 80 149 3.0 3.0 0.00 0.00 0.00 95 1013.6
20260904041103 80 162 0.0 0.0 0.00 0.00 0.00 95 1013.6
20260904040602 80 162 0.0 0.0 0.00 0.00 0.00 95 1013.6
20260904040059 80 162 0.0 0.0 0.00 0.00 0.00 94 1013.6
20260904035555 79 162 0.0 0.0 0.11 0.75 0.75 94 1014.0
20260904035054 79 96 0.0 0.0 0.11 0.75 0.75 93 1014.0
20260904034549 79 82 0.0 0.0 0.11 0.75 0.75 94 1014.0
20260904034044 79 82 0.0 0.0 0.11 0.75 0.75 94 1014.0
20260904033540 80 188 4.0 4.0 0.07 0.72 0.72 95 1014.0
20260904033037 80 192 7.0 8.0 0.00 0.64 0.64 94 1014.0
20260904032533 80 144 0.0 0.0 0.00 0.64 0.64 93 1013.6
20260904032031 80 120 0.0 0.0 0.00 0.64 0.64 92 1013.6
20260904031526 80 162 0.0 0.0 0.00 0.64 0.64 92 1014.0
20260904031022 80 114 2.0 2.0 0.00 0.64 0.64 92 1014.0
20260904030518 80 114 5.0 6.0 0.00 0.64 0.64 91 1014.0
20260904030014 80 78 7.0 8.0 0.00 0.64 0.64 91 1014.0
20260904025509 80 162 4.0 4.0 0.00 0.64 0.64 90 1013.6
20260904025009 80 134 5.0 6.0 0.00 0.64 0.64 90 1013.6
20260904024504 80 186 5.0 6.0 0.00 0.64 0.64 90 1014.0
20260904024000 80 186 2.0 2.0 0.00 0.64 0.64 91 1013.6
20260904023456 80 198 2.0 2.0 0.00 0.64 0.64 92 1014.0
20260904022956 79 168 0.0 0.0 0.00 0.64 0.64 94 1014.0
20260904022452 79 174 3.0 3.0 0.00 0.64 0.64 96 1014.0
20260904021948 79 112 0.0 0.0 0.00 0.64 0.64 96 1013.6
20260904021444 79 112 0.0 0.0 0.00 0.64 0.64 96 1013.6
20260904020939 79 112 0.0 0.0 0.00 0.64 0.64 96 1014.0
20260904020434 79 112 0.0 0.0 0.00 0.64 0.64 95 1014.0
20260904015932 79 112 0.0 0.0 0.00 0.64 0.64 95 1014.0
20260904015428 79 112 0.0 0.0 0.00 0.64 0.64 95 1014.0
20260904014927 79 112 0.0 0.0 0.00 0.64 0.64 95 1014.0
20260904014422 79 112 0.0 0.0 0.00 0.64 0.64 94 1013.6
20260904013917 80 112 0.0 0.0 0.00 0.64 0.64 93 1014.0
20260904013413 80 112 0.0 0.0 0.00 0.64 0.64 93 1013.6
20260904012909 80 112 0.0 0.0 0.00 0.64 0.64 93 1013.6
20260904012408 80 112 0.0 0.0 0.00 0.64 0.64 92 1013.6
20260904011903 80 112 0.0 0.0 0.00 0.64 0.64 91 1013.6
20260904011358 80 112 0.0 0.0 0.00 0.64 0.64 91 1013.3
20260904010853 80 112 0.0 0.0 0.00 0.64 0.64 91 1013.6
20260904010350 80 112 0.0 0.0 0.00 0.64 0.64 92 1013.3
20260904005850 80 112 0.0 0.0 0.00 0.64 0.64 92 1013.3
20260904005346 80 110 0.0 0.0 0.00 0.64 0.64 92 1013.3
20260904004840 80 110 0.0 0.0 0.00 0.64 0.64 92 1013.3
20260904004337 80 139 0.0 0.0 0.00 0.64 0.64 93 1013.0
20260904003832 81 119 2.0 2.0 0.00 0.64 0.64 94 1013.0
20260904003328 80 114 2.0 2.0 0.00 0.64 0.64 94 1013.0
20260904002823 80 94 3.0 4.0 0.00 0.64 0.64 93 1013.0
20260904002319 80 138 3.0 3.0 0.00 0.64 0.64 93 1012.6
20260904001818 80 132 2.0 2.0 0.00 0.64 0.64 92 1012.6
20260904001314 80 198 2.0 2.0 0.00 0.64 0.64 93 1013.0
20260904000809 80 96 2.0 2.0 0.00 0.64 0.64 92 1013.0
20260904000310 79 132 4.0 4.0 0.00 0.64 0.64 93 1013.0
20260903235808 79 101 0.0 0.0 0.00 0.64 0.64 94 1013.0
20260903235305 79 96 0.0 0.0 0.00 0.64 0.64 94 1013.0
20260903234803 79 100 0.0 0.0 0.00 0.64 0.64 95 1013.0
20260903234301 79 85 0.0 0.0 0.00 0.64 0.64 95 1013.3
20260903233756 79 85 0.0 0.0 0.00 0.64 0.64 95 1013.0
20260903233252 79 85 0.0 0.0 0.00 0.64 0.64 95 1013.0
20260903232750 79 85 0.0 0.0 0.00 0.64 0.64 95 1013.0
20260903232247 79 85 0.0 0.0 0.00 0.64 0.64 95 1013.0
20260903231745 79 85 0.0 0.0 0.00 0.64 0.64 95 1013.0
20260903231241 79 89 0.0 0.0 0.00 0.64 0.64 96 1013.0
20260903230737 78 92 1.0 1.0 0.00 0.64 0.64 96 1013.0
20260903230236 78 106 0.0 0.0 0.00 0.64 0.64 96 1012.6
20260903225733 78 150 0.0 0.0 0.00 0.64 0.64 97 1013.0
20260903225229 77 194 0.0 0.0 0.00 0.64 0.64 97 1013.0
20260903224725 77 194 0.0 0.0 0.00 0.64 0.64 97 1013.0
20260903224221 77 194 0.0 0.0 0.00 0.64 0.64 97 1013.0
20260903223721 77 194 0.0 0.0 0.00 0.64 0.64 96 1013.0
20260903223220 77 194 2.0 2.0 0.00 0.64 0.64 96 1013.3
20260903222715 77 80 0.0 0.0 0.00 0.64 0.64 96 1013.0
20260903222214 77 66 3.0 3.0 0.00 0.64 0.64 96 1013.0
20260903221709 77 354 3.0 3.0 0.00 0.64 0.64 96 1013.3
20260903221208 76 325 1.0 1.0 0.00 0.64 0.64 96 1012.6
20260903220706 76 40 2.0 2.0 0.00 0.64 0.64 96 1013.0
20260903220201 76 66 0.0 0.0 0.00 0.64 0.64 96 1013.0
20260903215700 76 71 2.0 2.0 0.25 0.64 0.64 95 1012.3
20260903215155 75 86 3.0 4.0 0.25 0.64 0.64 95 1012.6
20260903214653 75 75 4.0 4.0 0.25 0.64 0.64 96 1012.6
20260903214149 75 162 0.0 0.0 0.23 0.62 0.62 96 1012.6
20260903213644 74 259 3.0 3.0 0.23 0.62 0.62 96 1012.6
20260903213140 75 216 3.0 4.0 0.23 0.62 0.62 96 1012.3
20260903212636 75 228 3.0 3.0 0.23 0.62 0.62 96 1012.0
20260903212131 75 204 2.0 2.0 0.23 0.62 0.62 96 1012.3
20260903211625 75 244 2.0 2.0 0.23 0.62 0.62 96 1012.0
20260903211123 76 232 0.0 0.0 0.23 0.62 0.62 96 1012.3
20260903210618 76 225 4.0 4.0 0.23 0.62 0.62 95 1012.3
20260903210114 76 232 7.0 7.0 0.06 0.45 0.45 94 1012.6
20260903205613 78 212 6.0 6.0 0.00 0.29 0.29 90 1012.6
20260903205112 78 222 6.0 7.0 0.00 0.29 0.29 88 1013.0
20260903204603 80 210 9.0 10.0 0.00 0.29 0.29 84 1013.0
20260903204058 81 210 13.0 14.0 0.00 0.29 0.29 83 1012.6
20260903203554 85 160 2.0 2.0 0.00 0.29 0.29 85 1012.3
20260903203053 85 150 0.0 0.0 0.00 0.29 0.29 84 1012.0
20260903202549 86 120 2.0 2.0 0.00 0.29 0.29 83 1012.3
20260903202044 86 118 3.0 4.0 0.00 0.29 0.29 83 1012.3
20260903201539 86 97 4.0 4.0 0.00 0.29 0.29 84 1012.3
20260903201038 86 102 4.0 4.0 0.00 0.29 0.29 82 1012.0
20260903200533 86 66 5.0 5.0 0.00 0.29 0.29 82 1012.3
20260903200028 86 52 5.0 6.0 0.00 0.29 0.29 83 1012.3
20260903195524 85 156 5.0 6.0 0.00 0.29 0.29 84 1012.3
20260903195020 85 80 7.0 7.0 0.00 0.29 0.29 84 1012.0
20260903194515 85 42 7.0 8.0 0.00 0.29 0.29 84 1012.0
20260903194010 85 102 7.0 8.0 0.00 0.29 0.29 85 1011.6
20260903193507 85 60 6.0 7.0 0.00 0.29 0.29 85 1012.0
20260903193001 85 84 6.0 6.0 0.00 0.29 0.29 85 1012.3
20260903192458 85 91 6.0 6.0 0.00 0.29 0.29 85 1013.0
20260903191953 85 152 7.0 7.0 0.00 0.29 0.29 85 1012.3
20260903191449 85 101 5.0 5.0 0.00 0.29 0.29 85 1012.3
20260903190948 85 114 4.0 5.0 0.00 0.29 0.29 85 1012.3
20260903190443 85 99 2.0 2.0 0.00 0.29 0.29 86 1012.6
20260903185942 85 132 4.0 4.0 0.00 0.29 0.29 85 1012.6
20260903185439 85 99 7.0 7.0 0.00 0.29 0.29 84 1012.6
20260903184938 85 67 6.0 6.0 0.00 0.29 0.29 82 1013.0
20260903184436 86 134 4.0 4.0 0.00 0.29 0.29 83 1013.0
20260903183935 85 96 2.0 2.0 0.00 0.29 0.29 83 1013.0
20260903183430 86 132 3.0 4.0 0.00 0.29 0.29 82 1013.0
20260903182929 86 144 4.0 4.0 0.00 0.29 0.29 82 1012.6
20260903182428 85 79 4.0 4.0 0.00 0.29 0.29 80 1012.3
20260903181924 85 114 5.0 6.0 0.00 0.29 0.29 79 1012.6
20260903181419 85 90 3.0 4.0 0.00 0.29 0.29 80 1012.6
20260903180918 86 102 3.0 4.0 0.00 0.29 0.29 80 1012.6
20260903180413 85 88 4.0 4.0 0.00 0.29 0.29 80 1013.0
20260903175913 85 72 4.0 4.0 0.00 0.29 0.29 81 1013.0
20260903175413 85 108 4.0 4.0 0.00 0.29 0.29 80 1013.0
20260903174907 85 74 3.0 3.0 0.00 0.29 0.29 82 1013.3
20260903174403 85 105 5.0 5.0 0.00 0.29 0.29 81 1013.0
20260903173902 85 64 3.0 4.0 0.00 0.29 0.29 83 1013.3
20260903173357 85 111 3.0 4.0 0.00 0.29 0.29 84 1013.6
20260903172853 85 96 5.0 5.0 0.00 0.29 0.29 83 1013.6
20260903172347 84 126 0.0 0.0 0.00 0.29 0.29 81 1013.6
20260903171843 84 49 3.0 4.0 0.00 0.29 0.29 82 1013.6
20260903171344 82 89 0.0 0.0 0.00 0.29 0.29 82 1013.3
20260903170843 81 106 3.0 3.0 0.00 0.29 0.29 85 1013.6
20260903170338 80 66 3.0 3.0 0.00 0.29 0.29 89 1013.6
20260903165836 81 162 2.0 2.0 0.03 0.29 0.29 92 1014.0
20260903165336 81 211 3.0 4.0 0.03 0.29 0.29 93 1014.0
20260903164831 82 138 2.0 2.0 0.03 0.29 0.29 94 1014.0
20260903164327 82 69 1.0 1.0 0.03 0.29 0.29 94 1014.0
20260903163826 82 68 2.0 2.0 0.03 0.29 0.29 94 1014.0
20260903163323 83 95 7.0 7.0 0.01 0.28 0.28 92 1014.0
20260903162818 83 102 3.0 4.0 0.00 0.26 0.26 91 1014.3
20260903162315 85 84 4.0 4.0 0.00 0.26 0.26 88 1014.0
20260903161810 85 90 4.0 4.0 0.00 0.26 0.26 84 1014.0
20260903161306 86 66 5.0 6.0 0.00 0.26 0.26 83 1014.3
20260903160801 85 90 6.0 6.0 0.00 0.26 0.26 84 1014.3
20260903160300 84 106 3.0 3.0 0.00 0.26 0.26 85 1014.3
20260903155758 84 108 2.0 2.0 0.00 0.26 0.26 86 1014.0
20260903155254 84 102 0.0 0.0 0.00 0.26 0.26 86 1014.0
20260903154749 83 83 4.0 4.0 0.00 0.26 0.26 87 1014.3
20260903154245 84 96 0.0 0.0 0.00 0.26 0.26 88 1014.0
20260903153741 84 84 3.0 3.0 0.00 0.26 0.26 88 1014.0
20260903153236 84 67 2.0 2.0 0.00 0.26 0.26 88 1014.3
20260903152732 84 93 6.0 6.0 0.00 0.26 0.26 88 1014.3
20260903152229 84 71 3.0 3.0 0.00 0.26 0.26 88 1014.3
20260903151728 84 65 5.0 5.0 0.00 0.26 0.26 87 1014.0
20260903151224 84 53 3.0 3.0 0.00 0.26 0.26 87 1014.0
20260903150718 84 81 6.0 7.0 0.00 0.26 0.26 86 1014.3